Location: Newark
(36.8464°N, 25.6817°E)
Time: 01:45:34
(UTC+00:00)

N. Korean satellite - Visible Passes

Search period start: 14 October 2019 00:00
Search period end: 24 October 2019 00:00
Orbit: 455 x 508 km, 97.2° (Epoch: 13 October)

Date Brightness Start Highest point End Pass type
(mag) Time Alt. Az. Time Alt. Az. Time Alt. Az.
14 Oct 10.0 16:23:18 10° SW 16:25:22 15° W 16:27:27 10° WNW visible
15 Oct 8.1 03:50:12 10° NNE 03:53:37 42° E 03:57:05 10° S visible
16 Oct 9.7 03:25:34 10° NE 03:28:15 20° E 03:30:59 10° SE visible
18 Oct 9.8 16:15:01 10° SW 16:17:31 19° W 16:20:03 10° NW visible
19 Oct 8.6 03:42:31 10° NNE 03:45:50 34° E 03:49:11 10° SSE visible
20 Oct 10.0 03:18:06 10° NE 03:20:26 16° E 03:22:46 10° SE visible
21 Oct 10.4 16:34:04 10° WSW 16:35:06 11° W 16:36:10 10° WNW visible
22 Oct 7.3 03:59:44 10° NNE 04:03:21 61° E 04:06:59 10° S visible
22 Oct 9.3 16:06:50 10° SSW 16:09:39 24° W 16:12:30 10° NW visible
23 Oct 9.1 03:34:51 10° NE 03:38:00 27° E 03:41:11 10° SSE visible
